Oroville, CA

6:43 AM PDT on August 16, 2017 (GMT -0700)
Oroville Municipal

Weather History for KOVE - January, 2013

Change the Weather History Date:

Tuesday, January 1, 2013

  Actual Average Record
Temperature  
Mean Temperature 44 °F -  
Max Temperature 57 °F 55 °F 65 °F (1986)
Min Temperature 30 °F 34 °F 23 °F (1960)
Degree Days  
Heating Degree Days 22    
Moisture  
Dew Point 31 °F    
Average Humidity 69    
Maximum Humidity 92    
Minimum Humidity 31    
Precipitation  
Precipitation 0.00 in - - ()
Sea Level Pressure  
Sea Level Pressure 30.28 in    
Wind  
Wind Speed 5 mph (NNW)    
Max Wind Speed 12 mph    
Max Gust Speed 20 mph    
Visibility 10 miles    
Events      
Averages and records for this station are not official NWS values.
T = Trace of Precipitation, MM = Missing Value Source: NWS Daily Summary

Daily Weather History Graph

Daily Weather History Graph

Search for Another Location

Airport or City:

Trip Planner

Search our weather history database for the weather conditions in past years. The results will help you decide how hot, cold, wet, or windy it might be!

Date:

Astronomy

Jan. 01, 2013 Rise Set
Actual Time 7:26 AM PST 4:53 PM PST
Civil Twilight 6:56 AM PST 5:23 PM PST
Nautical Twilight 6:23 AM PST 5:57 PM PST
Astronomical Twilight 5:50 AM PST 6:30 PM PST
Moon 9:28 PM PST (1/1) 9:42 AM PST (1/1)
Length of Visible Light 10h 27m
Length of Day
9h 26m
Waning Gibbous, 82% of the Moon is Illuminated
Jan 1
Waning Gibbous
Jan 4
Last Quarter
Jan 11
New
Jan 18
First Quarter
Jan 26
Full

Hourly Weather History & Observations

Time (PST) Temp. Windchill Dew Point Humidity Pressure Visibility Wind Dir Wind Speed Gust Speed Precip Events Conditions
12:53 AM 39.0 °F 35.7 °F 34.0 °F 82% 30.29 in 10.0 mi ENE 4.6 mph - N/A   Overcast
1:53 AM 39.0 °F 35.7 °F 34.0 °F 82% 30.30 in 10.0 mi ENE 4.6 mph - N/A   Overcast
2:53 AM 37.0 °F - 34.0 °F 89% 30.30 in 10.0 mi Calm Calm - N/A   Mostly Cloudy
3:53 AM 37.0 °F 33.3 °F 33.1 °F 86% 30.31 in 10.0 mi NW 4.6 mph - N/A   Mostly Cloudy
4:53 AM 34.0 °F 29.8 °F 30.9 °F 89% 30.30 in 10.0 mi WNW 4.6 mph - N/A   Clear
5:53 AM 33.1 °F 28.7 °F 30.9 °F 92% 30.31 in 9.0 mi NW 4.6 mph - N/A   Clear
6:53 AM 32.0 °F 27.5 °F 28.9 °F 88% 30.31 in 10.0 mi WNW 4.6 mph - N/A   Clear
7:53 AM 30.9 °F 25.2 °F 28.9 °F 92% 30.30 in 10.0 mi West 5.8 mph - N/A   Clear
8:53 AM 34.0 °F 31.0 °F 30.0 °F 85% 30.30 in 10.0 mi WNW 3.5 mph - N/A   Clear
9:53 AM 42.1 °F 40.2 °F 33.1 °F 70% 30.32 in 10.0 mi WSW 3.5 mph - N/A   Clear
10:53 AM 44.1 °F 39.5 °F 35.1 °F 71% 30.31 in 10.0 mi WNW 8.1 mph - N/A   Clear
11:53 AM 46.9 °F - 32.0 °F 56% 30.30 in 10.0 mi NW 8.1 mph 18.4 mph N/A   Clear
12:53 PM 50.0 °F - 33.1 °F 52% 30.27 in 10.0 mi NW 11.5 mph 19.6 mph N/A   Clear
1:53 PM 54.0 °F - 34.0 °F 47% 30.25 in 10.0 mi NW 11.5 mph - N/A   Clear
2:53 PM 57.9 °F - 27.0 °F 31% 30.24 in 10.0 mi Calm Calm - N/A   Clear
3:53 PM 57.0 °F - 32.0 °F 39% 30.24 in 10.0 mi NW 3.5 mph - N/A   Clear
4:53 PM 48.9 °F - 30.9 °F 50% 30.24 in 10.0 mi North 5.8 mph - N/A   Clear
5:53 PM 46.9 °F - 28.0 °F 48% 30.24 in 10.0 mi North 6.9 mph - N/A   Clear
6:53 PM 46.9 °F - 25.0 °F 42% 30.24 in 10.0 mi NNE 5.8 mph - N/A   Clear
7:53 PM 46.0 °F 44.8 °F 24.1 °F 42% 30.25 in 10.0 mi WNW 3.5 mph - N/A   Clear
8:53 PM 39.9 °F 36.7 °F 30.9 °F 70% 30.27 in 10.0 mi SSE 4.6 mph - N/A   Clear
9:53 PM 36.0 °F - 30.0 °F 79% 30.27 in 10.0 mi Calm Calm - N/A   Clear
10:53 PM 34.0 °F 28.0 °F 30.0 °F 85% 30.29 in 10.0 mi ESE 6.9 mph - N/A   Clear
11:53 PM 36.0 °F 30.3 °F 30.9 °F 82% 30.29 in 10.0 mi ENE 6.9 mph - N/A   Clear